Regional Weather Roundup
Issued by NWS Sioux Falls, SD

Home | Current Version | Previous Version | Text Only | Print | Product List | Glossary On
Versions: 1 2 3 4 5 6 7 8 9 10 11 12 13 14 15 16 17 18 19 20 21 22 23 24 25 26 27 28 29 30 31 32 33 34 35 36 37 38 39 40 41 42 43 44 45 46 47 48 49 50
000
ASUS43 KFSD 240602
RWRFSD

WEATHER ROUNDUP FOR SE SOUTH DAKOTA/SW MINNESOTA/NW IOWA
NATIONAL WEATHER SERVICE SIOUX FALLS SD
100 AM CDT SUN JUL 24 2016

NOTE: "FAIR" INDICATES FEW OR NO CLOUDS BELOW 12,000 FEET WITH NO
SIGNIFICANT WEATHER AND OR OBSTRUCTIONS TO VISIBILITY.


SDZ038>040-050-052>070-240700-
SOUTHEAST SOUTH DAKOTA

CITY           SKY/WX    TMP DP  RH WIND       PRES   REMARKS
BROOKINGS      CLEAR     74  70  87 NW14      29.86R
CHAMBERLAIN    PTCLDY    70  64  80 NW6       29.93R
6HR MIN TEMP:  67; 6HR MAX TEMP:  93;

HURON          CLEAR     67  65  93 W6        29.87R
6HR MIN TEMP:  67; 6HR MAX TEMP:  93;

MADISON        FAIR      72  72 100 NW12      29.88R
MITCHELL       CLEAR     72  68  87 NW7       29.88R
6HR MIN TEMP:  72; 6HR MAX TEMP:  96;

SIOUX FALLS    CLEAR     78  70  76 N12       29.85R
6HR MIN TEMP:  78; 6HR MAX TEMP:  90;

WINNER         FAIR      72  56  57 W5        29.97R
YANKTON        CLEAR     79  66  65 NW18      29.86R
$$

MNZ071-072-080-081-089-090-097-098-240700-
SOUTHWEST MINNESOTA

CITY           SKY/WX    TMP DP  RH WIND       PRES   REMARKS
FAIRMONT       PTCLDY    75  72  88 S6        29.78S
JACKSON        CLEAR     77  73  88 CALM      29.81R
LUVERNE        PTCLDY    77  72  83 NW9       29.84R
MARSHALL       CLOUDY    80  74  81 NW21G28   29.81
6HR MIN TEMP:  80; 6HR MAX TEMP:  87;

MONTEVIDEO     PTCLDY    77  75  94 N9        29.80R
REDWOOD FALLS  MOCLDY    79  76  90 S8        29.76R
TRACY          MOCLDY    81  77  89 NW13G20   29.82R
WINDOM         CLEAR     79  75  89 SW5       29.80R
WORTHINGTON    CLEAR     80  76  87 SW9       29.82R
$$

IAZ001>003-012>014-020>022-031-032-NEZ013-014-SDZ071-240700-
NORTHWEST IOWA

CITY           SKY/WX    TMP DP  RH WIND       PRES   REMARKS
CHEROKEE       CLEAR     78  78 100 CALM      29.81R
DENISON        CLOUDY    79  75  89 VRB7G15   29.81S
ESTHERVILLE    CLEAR     75  75 100 S6        29.80R
LE MARS        PTCLDY    79  77  94 S3        29.81S
SHELDON        CLEAR     79  77  94 SW7       29.80R
SIOUX CITY     CLEAR     79  75  87 SE6       29.80R
6HR MIN TEMP:  79; 6HR MAX TEMP:  89;

SPENCER        CLEAR     77  75  93 SW5       29.81R
6HR MIN TEMP:  77; 6HR MAX TEMP:  86;

STORM LAKE     CLEAR     77  75  94 SW7       29.83S
$$

ABBREVIATIONS USED IN REMARKS
   TC - TEMPERATURE IN CELSIUS
  WCI - WIND CHILL INDEX
   HX - HEAT INDEX
  VSB - VISIBILITY





USA.gov is the U.S. government's official web portal to all federal, state and local government web resources and services.